Location: Newark
(7.0858°N, 171.3717°E)
Time: 00:38:15
(UTC+00:00)

STARLINK-3053 - Pass Details

Date: 28 September 2021
Orbit: 357 x 362 km, 70.0° (Epoch: 19 October)

Event Time Altitude Azimuth Distance (km) Brightness Sun altitude
Rises 05:47:54 0° 337° (NNW) 2,155 6.9 9.0°
Reaches altitude 10° 05:49:54 10° 333° (NNW) 1,314 5.9 8.5°
Maximum altitude 05:52:44 56° 254° (WSW) 424 3.8 7.8°
Drops below altitude 10° 05:55:34 10° 174° (S) 1,318 5.6 7.1°
Enters shadow 06:20:31 -52° 158° (SSE) 10,503 10.0 0.9°
Exits shadow 06:27:16 -65° 152° (SSE) 11,968 10.3 -0.8°
